• în Republica Moldova
  • Lista ţărilor
  • Pe 7 zile
  • Temperatura apei
  • Hartă satelitară
  • Meteo pe hartă
  • Widget-uri
  • user-avatar
    Intrare

    Meteo pe oră la Gjirokaster

    Astăzi, 21 Februarie, Marţi

    Timp Temperatura Precipitaţii Vânt Presiune Umiditate
    00:00 -2°C° 0 mm 1 m/s 651 mmHg 90%
    01:00 -2°C° 0 mm 1 m/s 650 mmHg 91%
    02:00 -2°C° 0 mm 1 m/s 650 mmHg 90%
    03:00 -4°C° 0 mm 2 m/s 650 mmHg 90%
    04:00 -4°C° 0 mm 2 m/s 650 mmHg 90%
    05:00 -4°C° 0 mm 2 m/s 650 mmHg 88%
    06:00 -4°C° 0 mm 2 m/s 650 mmHg 86%
    07:00 -4°C° 0 mm 2 m/s 650 mmHg 84%
    08:00 -2°C° 0 mm 2 m/s 651 mmHg 73%
    09:00 +2°C° 0 mm 2 m/s 651 mmHg 61%
    10:00 +4°C° 0 mm 2 m/s 652 mmHg 49%
    11:00 +4°C° 0 mm 3 m/s 652 mmHg 47%
    12:00 +4°C° 0 mm 3 m/s 652 mmHg 44%
    13:00 +5°C° 0 mm 3 m/s 652 mmHg 42%
    14:00 +4°C° 0 mm 3 m/s 652 mmHg 48%
    15:00 +4°C° 0 mm 4 m/s 651 mmHg 53%
    16:00 +3°C° 0 mm 4 m/s 651 mmHg 58%
    17:00 0°C° 0 mm 4 m/s 651 mmHg 65%
    18:00 -1°C° 0 mm 3 m/s 650 mmHg 72%
    19:00 -4°C° 0 mm 3 m/s 650 mmHg 80%
    20:00 -4°C° 0 mm 3 m/s 650 mmHg 79%
    21:00 -5°C° 0 mm 3 m/s 650 mmHg 77%
    22:00 -4°C° 0 mm 2 m/s 650 mmHg 76%
    23:00 -4°C° 0 mm 2 m/s 650 mmHg 73%

    Mâine, 22 Februarie, Miercuri

    Timp Temperatura Precipitaţii Vânt Presiune Umiditate
    00:00 -4°C° 0 mm 2 m/s 651 mmHg 69%
    01:00 -4°C° 0 mm 2 m/s 651 mmHg 66%
    02:00 -4°C° 0 mm 2 m/s 651 mmHg 65%
    03:00 -4°C° 0 mm 2 m/s 650 mmHg 65%
    04:00 -4°C° 0 mm 2 m/s 650 mmHg 64%
    05:00 -3°C° 0 mm 2 m/s 651 mmHg 64%
    06:00 -3°C° 0 mm 2 m/s 651 mmHg 65%
    07:00 -1°C° 0 mm 1 m/s 651 mmHg 65%
    08:00 +2°C° 0 mm 1 m/s 652 mmHg 59%
    09:00 +5°C° 0 mm 1 m/s 653 mmHg 52%
    10:00 +7°C° 0 mm 1 m/s 654 mmHg 46%
    11:00 +8°C° 0 mm 1 m/s 654 mmHg 47%
    12:00 +8°C° 0 mm 1 m/s 654 mmHg 48%
    13:00 +8°C° 0 mm 2 m/s 653 mmHg 49%
    14:00 +8°C° 0 mm 2 m/s 653 mmHg 55%
    15:00 +7°C° 0 mm 2 m/s 653 mmHg 61%
    16:00 +7°C° 0 mm 1 m/s 653 mmHg 66%
    17:00 +5°C° 0 mm 1 m/s 652 mmHg 74%
    18:00 +3°C° 0 mm 1 m/s 652 mmHg 83%
    19:00 +1°C° 0 mm 1 m/s 652 mmHg 91%
    20:00 +1°C° 0 mm 1 m/s 652 mmHg 91%
    21:00 0°C° 0 mm 1 m/s 652 mmHg 92%
    22:00 0°C° 0 mm 1 m/s 652 mmHg 92%
    23:00 -2°C° 0 mm 2 m/s 652 mmHg 93%

    Poimâine, 23 Februarie, Joi

    Timp Temperatura Precipitaţii Vânt Presiune Umiditate
    00:00 -2°C° 0 mm 2 m/s 652 mmHg 93%
    01:00 -2°C° 0 mm 2 m/s 651 mmHg 93%
    02:00 -2°C° 0 mm 2 m/s 651 mmHg 93%
    03:00 -2°C° 0 mm 2 m/s 651 mmHg 93%
    04:00 -4°C° 0 mm 3 m/s 651 mmHg 92%
    05:00 -2°C° 0 mm 3 m/s 651 mmHg 91%
    06:00 -2°C° 0 mm 3 m/s 651 mmHg 90%
    07:00 -2°C° 0 mm 3 m/s 651 mmHg 89%
    08:00 0°C° 0 mm 3 m/s 652 mmHg 80%
    09:00 +3°C° 0 mm 3 m/s 653 mmHg 71%
    10:00 +5°C° 0 mm 3 m/s 653 mmHg 62%
    11:00 +5°C° 0 mm 3 m/s 653 mmHg 61%
    12:00 +7°C° 0 mm 3 m/s 653 mmHg 59%
    13:00 +7°C° 0 mm 4 m/s 653 mmHg 58%
    14:00 +7°C° 0 mm 3 m/s 652 mmHg 63%
    15:00 +7°C° 0 mm 3 m/s 652 mmHg 68%
    16:00 +5°C° 0 mm 3 m/s 652 mmHg 73%
    17:00 +4°C° 0 mm 3 m/s 652 mmHg 80%
    18:00 +2°C° 0 mm 3 m/s 652 mmHg 86%
    19:00 +1°C° 0 mm 3 m/s 651 mmHg 93%
    20:00 0°C° 0 mm 3 m/s 651 mmHg 93%
    21:00 0°C° 0 mm 3 m/s 651 mmHg 93%
    22:00 0°C° 0 mm 3 m/s 651 mmHg 93%
    23:00 0°C° 0 mm 3 m/s 651 mmHg 93%

    24 Februarie, Vineri

    Timp Temperatura Precipitaţii Vânt Presiune Umiditate
    00:00 0°C° 0 mm 3 m/s 651 mmHg 93%
    01:00 0°C° 0 mm 3 m/s 651 mmHg 92%
    02:00 0°C° 0 mm 3 m/s 651 mmHg 93%
    03:00 0°C° 0 mm 3 m/s 650 mmHg 94%
    04:00 0°C° 0 mm 3 m/s 650 mmHg 95%
    05:00 -1°C° 0 mm 4 m/s 650 mmHg 95%
    06:00 -1°C° 0 mm 4 m/s 650 mmHg 95%
    07:00 -1°C° 0 mm 4 m/s 650 mmHg 94%
    08:00 +1°C° 0 mm 4 m/s 650 mmHg 89%
    09:00 +3°C° 0 mm 5 m/s 651 mmHg 83%
    10:00 +5°C° 0 mm 5 m/s 651 mmHg 78%
    11:00 +6°C° 0 mm 5 m/s 651 mmHg 76%
    12:00 +5°C° 0 mm 6 m/s 650 mmHg 75%
    13:00 +7°C° 0 mm 6 m/s 650 mmHg 73%
    14:00 +5°C° 0,1 mm 6 m/s 650 mmHg 77%
    15:00 +5°C° 0,1 mm 6 m/s 649 mmHg 81%
    16:00 +4°C° 0,1 mm 6 m/s 649 mmHg 84%
    17:00 +3°C° 0,3 mm 6 m/s 648 mmHg 87%
    18:00 +3°C° 0,3 mm 6 m/s 648 mmHg 90%
    19:00 +2°C° 0,3 mm 6 m/s 648 mmHg 92%
    20:00 +2°C° 0,8 mm 6 m/s 647 mmHg 91%
    21:00 +2°C° 0,8 mm 6 m/s 647 mmHg 91%
    22:00 +2°C° 0,8 mm 7 m/s 646 mmHg 90%
    23:00 +2°C° 0,9 mm 7 m/s 646 mmHg 92%

    25 Februarie, Sâmbătă

    Timp Temperatura Precipitaţii Vânt Presiune Umiditate
    00:00 +2°C° 0,9 mm 7 m/s 645 mmHg 93%
    01:00 +2°C° 0,9 mm 7 m/s 645 mmHg 95%
    02:00 +3°C° 1,3 mm 6 m/s 644 mmHg 96%
    03:00 +3°C° 1,3 mm 5 m/s 644 mmHg 96%
    04:00 +3°C° 1,3 mm 5 m/s 644 mmHg 97%
    05:00 +4°C° 0,7 mm 4 m/s 645 mmHg 97%
    06:00 +4°C° 0,7 mm 4 m/s 645 mmHg 97%
    07:00 +4°C° 0,7 mm 3 m/s 646 mmHg 96%
    08:00 +5°C° 0,1 mm 4 m/s 647 mmHg 92%
    09:00 +5°C° 0,1 mm 4 m/s 648 mmHg 88%
    10:00 +5°C° 0,1 mm 4 m/s 648 mmHg 84%
    11:00 +5°C° 0,1 mm 5 m/s 649 mmHg 80%
    12:00 +6°C° 0,1 mm 5 m/s 649 mmHg 76%
    13:00 +5°C° 0,1 mm 6 m/s 649 mmHg 72%
    14:00 +4°C° 0 mm 6 m/s 650 mmHg 72%
    15:00 +5°C° 0 mm 5 m/s 650 mmHg 72%
    16:00 +3°C° 0 mm 5 m/s 650 mmHg 71%
    17:00 +2°C° 0 mm 5 m/s 651 mmHg 76%
    18:00 0°C° 0 mm 5 m/s 651 mmHg 80%
    19:00 -1°C° 0 mm 4 m/s 651 mmHg 84%
    20:00 -1°C° 0 mm 4 m/s 652 mmHg 83%
    21:00 -2°C° 0 mm 4 m/s 652 mmHg 83%
    22:00 -1°C° 0 mm 3 m/s 652 mmHg 83%
    23:00 -2°C° 0 mm 3 m/s 652 mmHg 81%

    26 Februarie, Duminică

    Timp Temperatura Precipitaţii Vânt Presiune Umiditate
    00:00 -2°C° 0 mm 3 m/s 652 mmHg 80%
    01:00 -4°C° 0 mm 3 m/s 652 mmHg 78%
    02:00 -4°C° 0 mm 3 m/s 652 mmHg 75%
    03:00 -4°C° 0 mm 3 m/s 652 mmHg 72%
    04:00 -3°C° 0 mm 2 m/s 652 mmHg 70%
    05:00 -3°C° 0 mm 2 m/s 653 mmHg 66%
    06:00 -3°C° 0 mm 2 m/s 653 mmHg 62%
    07:00 -2°C° 0 mm 2 m/s 653 mmHg 58%
    08:00 +3°C° 0 mm 1 m/s 654 mmHg 51%
    09:00 +5°C° 0 mm 1 m/s 655 mmHg 43%
    10:00 +7°C° 0 mm 0 m/s 656 mmHg 36%
    11:00 +9°C° 0 mm 1 m/s 656 mmHg 37%
    12:00 +9°C° 0 mm 1 m/s 656 mmHg 38%
    13:00 +9°C° 0 mm 2 m/s 655 mmHg 39%
    14:00 +8°C° 0 mm 2 m/s 655 mmHg 44%
    15:00 +8°C° 0 mm 2 m/s 655 mmHg 50%
    16:00 +7°C° 0 mm 2 m/s 655 mmHg 55%
    17:00 +5°C° 0 mm 2 m/s 654 mmHg 63%
    18:00 +4°C° 0 mm 1 m/s 654 mmHg 70%
    19:00 +2°C° 0 mm 1 m/s 653 mmHg 78%
    20:00 +1°C° 0 mm 1 m/s 653 mmHg 76%
    21:00 +1°C° 0 mm 1 m/s 653 mmHg 74%
    22:00 +1°C° 0 mm 1 m/s 653 mmHg 72%
    23:00 +1°C° 0 mm 1 m/s 653 mmHg 70%
    Arată mai mult